Cork, Ireland

8:13 PM IST on September 29, 2016 (GMT +0100)
Cork

Weather History for EICK - August, 2013

Change the Weather History Date:

Tuesday, August 13, 2013

  Actual Average Record
Temperature  
Mean Temperature 58 °F -  
Max Temperature 64 °F 64 °F 71 °F (2003)
Min Temperature 53 °F 53 °F 48 °F (2007)
Degree Days  
Heating Degree Days 6    
Growing Degree Days 8 (Base 50)    
Moisture  
Dew Point 53 °F    
Average Humidity 85    
Maximum Humidity 100    
Minimum Humidity 71    
Precipitation  
Precipitation 0.02 in - - ()
Sea Level Pressure  
Sea Level Pressure 30.21 in    
Wind  
Wind Speed 6 mph ()    
Max Wind Speed 13 mph    
Max Gust Speed -    
Visibility 5.7 miles    
Events Fog , Rain    
Averages and records for this station are not official NWS values.
T = Trace of Precipitation, MM = Missing Value Source: Averaged Metar Reports

Daily Weather History Graph

Daily Weather History Graph

Search for Another Location

Airport or City:

Trip Planner

Search our weather history database for the weather conditions in past years. The results will help you decide how hot, cold, wet, or windy it might be!

Date:

Astronomy

Aug. 13, 2013 Rise Set
Actual Time 6:15 AM IST 9:01 PM IST
Civil Twilight 5:36 AM IST 9:39 PM IST
Nautical Twilight 4:47 AM IST 10:28 PM IST
Astronomical Twilight 3:46 AM IST 11:28 PM IST
Moon 1:52 PM IST (8/13) 11:27 PM IST (8/13)
Length of Visible Light 16h 02m
Length of Day
14h 45m
Waxing Crescent, 39% of the Moon is Illuminated
Aug 13
Waxing Crescent
Aug 14
First Quarter
Aug 21
Full
Aug 28
Last Quarter
Sep 5
New

Hourly Weather History & Observations

Time (IST) Temp. Dew Point Humidity Pressure Visibility Wind Dir Wind Speed Gust Speed Precip Events Conditions
12:00 AM 55.4 °F 48.2 °F 77% 30.21 in 6.2 mi WNW 4.6 mph - N/A   Mostly Cloudy
12:30 AM 55.4 °F 48.2 °F 77% 30.21 in 6.2 mi Calm Calm - N/A   Mostly Cloudy
1:00 AM 56 °F 49 °F 71% 30.23 in 19 mi WSW 4.5 mph - -   Mostly Cloudy
1:00 AM 55.4 °F 50.0 °F 82% 30.21 in 6.2 mi WSW 4.6 mph - N/A   Mostly Cloudy
1:30 AM 55.4 °F 50.0 °F 82% 30.21 in 6.2 mi WSW 6.9 mph - N/A   Mostly Cloudy
2:00 AM 53.6 °F 50.0 °F 88% 30.21 in 6.2 mi WSW 5.8 mph - N/A   Mostly Cloudy
2:30 AM 55.4 °F 50.0 °F 82% 30.21 in 6.2 mi West 6.9 mph - N/A   Mostly Cloudy
3:00 AM 55.4 °F 50.0 °F 82% 30.21 in 6.2 mi WSW 5.8 mph - N/A   Mostly Cloudy
3:30 AM 53.6 °F 50.0 °F 88% 30.21 in 6.2 mi SW 4.6 mph - N/A   Mostly Cloudy
4:00 AM 55.4 °F 50.0 °F 82% 30.21 in 6.2 mi WSW 6.9 mph - N/A   Mostly Cloudy
4:30 AM 55.4 °F 50.0 °F 82% 30.21 in 6.2 mi SW 4.6 mph - N/A   Mostly Cloudy
5:00 AM 53.6 °F 50.0 °F 88% 30.21 in 6.2 mi Variable 3.5 mph - N/A   Mostly Cloudy
5:30 AM 53.6 °F 50.0 °F 88% 30.21 in 6.2 mi SW 5.8 mph - N/A   Mostly Cloudy
6:00 AM 53.6 °F 50.0 °F 88% 30.18 in 6.2 mi SW 4.6 mph - N/A   Mostly Cloudy
6:30 AM 55.4 °F 51.8 °F 88% 30.21 in 6.2 mi WSW 8.1 mph - N/A   Mostly Cloudy
7:00 AM 55 °F 51 °F 82% 30.23 in 22 mi WSW 6.7 mph - -   Mostly Cloudy
7:00 AM 55.4 °F 51.8 °F 88% 30.21 in 6.2 mi WSW 5.8 mph - N/A   Mostly Cloudy
7:30 AM 55.4 °F 51.8 °F 88% 30.21 in 6.2 mi WSW 5.8 mph - N/A   Mostly Cloudy
8:00 AM 55.4 °F 51.8 °F 88% 30.21 in 6.2 mi SSW 4.6 mph - N/A   Mostly Cloudy
8:30 AM 55.4 °F 53.6 °F 94% 30.21 in 6.2 mi SW 5.8 mph - N/A   Mostly Cloudy
9:00 AM 55.4 °F 51.8 °F 88% 30.24 in 6.2 mi SW 8.1 mph - N/A   Mostly Cloudy
9:30 AM 57.2 °F 53.6 °F 88% 30.24 in 6.2 mi SW 6.9 mph - N/A   Mostly Cloudy
10:00 AM 57.2 °F 53.6 °F 88% 30.24 in 6.2 mi SW 6.9 mph - N/A   Mostly Cloudy
10:30 AM 57.2 °F 53.6 °F 88% 30.24 in 6.2 mi SW 6.9 mph - N/A   Mostly Cloudy
11:00 AM 59.0 °F 53.6 °F 82% 30.24 in 6.2 mi SW 8.1 mph - N/A   Overcast
11:30 AM 59.0 °F 53.6 °F 82% 30.24 in 6.2 mi WSW 8.1 mph - N/A   Mostly Cloudy
12:00 PM 59.0 °F 53.6 °F 82% 30.24 in 6.2 mi SW 8.1 mph - N/A   Mostly Cloudy
12:30 PM 59.0 °F 53.6 °F 82% 30.24 in 6.2 mi WSW 6.9 mph - N/A   Mostly Cloudy
1:00 PM 60 °F 54 °F 75% 30.25 in 25 mi WSW 11.2 mph - -   Mostly Cloudy
1:00 PM 60.8 °F 53.6 °F 77% 30.24 in 6.2 mi WSW 10.4 mph - N/A   Mostly Cloudy
1:30 PM 60.8 °F 53.6 °F 77% 30.24 in 6.2 mi West 9.2 mph - N/A   Mostly Cloudy
2:00 PM 62.6 °F 53.6 °F 72% 30.24 in 6.2 mi West 9.2 mph - N/A   Mostly Cloudy
2:30 PM 62.6 °F 53.6 °F 72% 30.21 in 6.2 mi SSW 8.1 mph - N/A   Mostly Cloudy
3:00 PM 62.6 °F 55.4 °F 77% 30.21 in 6.2 mi SSW 10.4 mph - N/A   Mostly Cloudy
3:30 PM 62.6 °F 55.4 °F 77% 30.21 in 6.2 mi SW 9.2 mph - N/A   Mostly Cloudy
4:00 PM 62.6 °F 55.4 °F 77% 30.21 in 6.2 mi SW 9.2 mph - N/A   Mostly Cloudy
4:30 PM 62.6 °F 55.4 °F 77% 30.21 in 6.2 mi SW 8.1 mph - N/A   Mostly Cloudy
5:00 PM 62.6 °F 55.4 °F 77% 30.21 in 6.2 mi SSW 11.5 mph - N/A   Mostly Cloudy
5:30 PM 62.6 °F 55.4 °F 77% 30.18 in 6.2 mi SW 11.5 mph - N/A   Mostly Cloudy
6:00 PM 62.6 °F 55.4 °F 77% 30.18 in 6.2 mi SSW 10.4 mph - N/A   Mostly Cloudy
6:30 PM 60.8 °F 55.4 °F 82% 30.18 in 6.2 mi SSW 10.4 mph - N/A   Mostly Cloudy
7:00 PM 60 °F 55 °F 79% 30.20 in 28 mi SSW 8.9 mph - -   Mostly Cloudy
7:00 PM 59.0 °F 55.4 °F 88% 30.18 in 6.2 mi SSW 9.2 mph - N/A   Mostly Cloudy
7:30 PM 59.0 °F 55.4 °F 88% 30.18 in 6.2 mi SSW 9.2 mph - N/A   Light Drizzle
8:00 PM 59.0 °F 55.4 °F 88% 30.18 in 6.2 mi South 9.2 mph - N/A   Overcast
8:30 PM 57.2 °F 55.4 °F 94% 30.18 in 3.1 mi South 9.2 mph - N/A   Light Drizzle
9:00 PM 57.2 °F 57.2 °F 100% 30.18 in 0.7 mi South 8.1 mph - N/A   Light Drizzle
9:30 PM 57.2 °F 57.2 °F 100% 30.18 in 1.0 mi South 9.2 mph - N/A   Light Drizzle
10:00 PM 57.2 °F 57.2 °F 100% 30.18 in 0.4 mi SSE 10.4 mph - N/A Fog Light Drizzle
10:30 PM 57.2 °F 57.2 °F 100% 30.15 in 0.5 mi SSE 12.7 mph - N/A Fog Light Drizzle
11:00 PM 59.0 °F 59.0 °F 100% 30.15 in 0.4 mi SSE 11.5 mph - N/A Fog Light Drizzle
11:30 PM 59.0 °F 59.0 °F 100% - 0.4 mi SSE 10.4 mph - N/A Fog , Rain Light Rain